TimeMST,TemperatureF,Dew PointF,Humidity,Sea Level PressureIn,VisibilityMPH,Wind Direction,Wind SpeedMPH,Gust SpeedMPH,PrecipitationIn,Events,Conditions,WindDirDegrees,DateUTC
12:53 AM,3.9,-0.9,80,30.38,10.0,Calm,Calm,-,N/A,,Clear,0,2013-02-05 07:53:00
1:53 AM,5.0,-0.0,80,30.37,10.0,Calm,Calm,-,N/A,,Clear,0,2013-02-05 08:53:00
2:53 AM,3.0,-2.0,80,30.37,10.0,Calm,Calm,-,N/A,,Clear,0,2013-02-05 09:53:00
3:53 AM,5.0,-0.9,76,30.37,10.0,Calm,Calm,-,N/A,,Clear,0,2013-02-05 10:53:00
4:53 AM,3.9,-0.9,80,30.39,10.0,Calm,Calm,-,N/A,,Clear,0,2013-02-05 11:53:00
5:53 AM,3.9,-0.9,80,30.40,10.0,Calm,Calm,-,N/A,,Clear,0,2013-02-05 12:53:00
6:53 AM,1.9,-2.0,83,30.43,10.0,Calm,Calm,-,N/A,,Clear,0,2013-02-05 13:53:00
7:53 AM,1.9,-2.9,80,30.43,10.0,WNW,4.6,-,N/A,,Clear,300,2013-02-05 14:53:00
8:53 AM,12.0,6.1,77,30.40,10.0,Calm,Calm,-,N/A,,Clear,0,2013-02-05 15:53:00
9:53 AM,18.0,10.0,71,30.39,10.0,WSW,4.6,-,N/A,,Partly Cloudy,240,2013-02-05 16:53:00
10:53 AM,23.0,14.0,68,30.36,10.0,WSW,5.8,-,N/A,,Overcast,240,2013-02-05 17:53:00
11:53 AM,27.0,17.1,66,30.31,10.0,West,3.5,-,N/A,,Overcast,260,2013-02-05 18:53:00
12:53 PM,37.0,18.0,46,30.23,10.0,East,8.1,-,N/A,,Overcast,90,2013-02-05 19:53:00
1:53 PM,37.9,18.0,45,30.19,10.0,East,6.9,-,N/A,,Overcast,80,2013-02-05 20:53:00
2:53 PM,35.1,24.1,64,30.20,10.0,SSW,4.6,-,N/A,,Overcast,210,2013-02-05 21:53:00
3:53 PM,39.0,19.9,46,30.15,10.0,ENE,5.8,-,N/A,,Overcast,70,2013-02-05 22:53:00
4:53 PM,34.0,19.0,54,30.16,10.0,ENE,3.5,-,N/A,,Clear,70,2013-02-05 23:53:00
5:53 PM,32.0,19.9,61,30.14,10.0,Calm,Calm,-,N/A,,Clear,0,2013-02-06 00:53:00
6:53 PM,33.1,19.9,59,30.15,10.0,ENE,3.5,-,N/A,,Mostly Cloudy,70,2013-02-06 01:53:00
7:53 PM,33.1,19.9,59,30.14,10.0,ENE,3.5,-,N/A,,Overcast,60,2013-02-06 02:53:00
8:53 PM,30.2,23.0,75,29.96,10.0,Calm,Calm,-,N/A,,Overcast,0,2013-02-06 03:53:00
9:53 PM,30.9,21.9,69,30.10,10.0,ESE,4.6,-,N/A,,Overcast,120,2013-02-06 04:53:00
10:53 PM,28.0,21.9,78,30.09,10.0,Calm,Calm,-,N/A,,Overcast,0,2013-02-06 05:53:00
11:53 PM,28.4,21.2,74,29.96,10.0,Calm,Calm,-,N/A,,Overcast,0,2013-02-06 06:53:00